Regional Weather Roundup
Issued by NWS

Home | Current Version | Previous Version | Graphics & Text | Print | Product List | Glossary On
Versions: 1 2 3 4 5 6 7 8 9 10 11 12 13 14 15 16 17 18 19 20 21 22 23 24 25 26 27 28 29 30 31 32 33 34 35 36 37 38 39 40 41 42 43 44 45 46 47 48 49 50
000
ASUS43 KBIS 190910
RWRND

NORTH DAKOTA REGIONAL WEATHER ROUNDUP
NATIONAL WEATHER SERVICE BISMARCK ND
400 AM CDT SAT AUG 19 2017

NOTE: "FAIR" INDICATES FEW OR NO CLOUDS BELOW 12,000 FEET WITH NO
SIGNIFICANT WEATHER AND/OR OBSTRUCTIONS TO VISIBILITY.


NDZ001>003-009>011-017-191000-
NORTHWEST NORTH DAKOTA

CITY           SKY/WX    TMP DP  RH WIND       PRES   REMARKS
WILLISTON      CLEAR     66  52  60 SW3       29.79F
MINOT          CLEAR     69  53  56 S12       29.81F
MINOT AFB        N/A     64  53  67 S10       29.79F
$$

NDZ018>021-031>035-040>046-191000-
SOUTHWEST NORTH DAKOTA

CITY           SKY/WX    TMP DP  RH WIND       PRES   REMARKS
BISMARCK       CLEAR     59  55  87 E6        29.89F
DICKINSON      CLEAR     59  52  77 S9        29.84F
GARRISON         N/A     59  55  87 CALM      29.85F
HETTINGER ARPT CLEAR     62  50  64 SE13      29.89F
$$

NDZ004>008-012>016-024-026-027-054-191000-
NORTHEAST NORTH DAKOTA

CITY           SKY/WX    TMP DP  RH WIND       PRES   REMARKS
GRAND FORKS    CLEAR     57  55  93 SW8       29.83S
GRND FRKS AFB  CLEAR     57  54  90 SW7       29.84S
DEVILS LAKE    CLEAR     66  55  67 SW9       29.86S
$$

NDZ022-023-025-028>030-036>039-047>053-191000-
SOUTHEAST NORTH DAKOTA

CITY           SKY/WX    TMP DP  RH WIND       PRES   REMARKS
FARGO          CLEAR     60  58  92 S6        29.87S
JAMESTOWN      CLEAR     57  54  89 SW6       29.88S
$$





USA.gov is the U.S. government's official web portal to all federal, state and local government web resources and services.